Wind_Speed
41 42 43 44 47 47 47 49 49 47 49 46 46 46 45 45 46 48 51 52 54 60 58 59 61 62 64 69 74 81 88 96 106 101 90 69 57 48 39 30 23 28 31
46 41 42 46 46 49 49 49 51 52 53 50 48 47 47 48 49 49 51 54 56 57 54 54 59 60 63 67 73 81 87 95 104 100 84 69 56 47 37 28 20 19 24
50 47 42 44 46 47 49 52 49 51 53 53 53 52 51 50 51 51 53 53 54 52 50 51 54 58 62 67 72 80 86 93 101 97 83 67 60 51 39 27 23 19 15
58 49 47 44 42 43 47 51 54 53 54 51 54 53 54 53 51 51 52 50 48 46 47 48 51 56 60 65 71 77 84 91 97 98 91 78 68 57 45 31 24 23 16
59 55 45 49 44 41 43 46 50 53 56 55 55 54 53 52 50 50 48 45 42 43 45 47 50 53 57 62 68 74 81 88 94 98 90 84 72 63 52 40 29 22 19
53 54 54 47 51 46 39 41 46 49 53 55 57 57 56 53 50 50 46 44 43 43 42 44 48 51 54 59 64 70 77 83 89 94 91 86 76 66 57 48 38 29 23
53 51 53 54 50 49 50 43 41 44 48 49 52 56 57 55 53 51 48 43 42 42 43 43 45 48 52 56 61 66 72 78 84 89 89 84 79 67 60 54 45 36 29
53 51 50 51 52 48 49 49 48 42 42 45 48 50 53 55 55 53 50 46 41 41 41 42 44 46 49 52 57 62 66 72 78 83 87 84 79 72 63 53 49 43 35
50 50 53 53 51 49 47 44 50 48 42 39 41 45 49 50 49 53 51 48 44 41 39 40 42 44 45 49 52 57 60 66 71 75 81 83 78 76 68 61 49 45 41
52 48 51 53 55 48 45 45 42 45 45 47 49 43 44 46 47 48 50 51 45 42 41 39 39 41 41 45 47 51 56 60 65 70 73 77 78 74 73 67 59 48 41
59 54 50 49 51 54 51 45 47 43 46 45 46 47 45 43 43 46 45 46 46 42 41 40 36 39 39 41 42 45 50 53 59 63 68 70 72 73 72 70 66 57 47
62 59 57 53 52 51 50 52 52 50 48 50 50 48 47 42 41 40 43 44 42 42 41 40 36 35 37 37 39 39 44 48 52 57 60 63 67 66 69 68 67 63 56
64 66 60 65 63 54 54 58 58 54 57 55 55 52 48 44 39 40 40 39 42 40 40 40 38 35 34 35 36 34 37 42 46 50 55 56 59 62 62 64 63 62 60
64 67 72 68 69 60 56 55 58 59 56 55 54 55 50 41 39 40 38 36 37 41 38 38 39 35 33 34 33 33 32 36 40 45 49 52 53 57 59 58 60 59 58
70 73 74 74 68 68 61 57 59 59 58 60 57 54 51 46 40 40 42 36 36 38 39 38 39 38 34 32 32 32 30 30 34 39 43 47 50 50 54 54 55 56 55
73 66 68 71 72 70 68 65 61 64 65 61 62 58 54 49 49 44 38 40 38 38 36 38 39 38 35 31 33 33 30 27 28 32 37 40 43 46 48 51 50 49 52
70 64 68 63 69 71 73 80 76 72 70 66 64 62 54 55 55 53 48 41 40 41 39 38 38 38 37 33 32 34 31 27 26 27 30 34 37 40 42 44 46 47 44
81 80 70 74 72 71 72 71 78 81 81 67 66 68 63 64 60 58 55 54 45 43 42 38 38 39 38 37 33 34 35 29 25 23 25 28 31 33 37 39 41 42 43
85 84 86 69 75 78 84 86 89 86 80 79 65 63 64 63 61 58 57 54 51 43 43 43 40 39 40 39 38 35 36 34 28 23 21 24 25 28 31 34 36 37 39
87 81 83 83 78 81 85 90 89 87 83 88 81 67 62 64 68 63 60 56 55 48 44 44 40 39 39 41 41 39 36 37 33 29 23 20 23 23 26 29 32 33 35
86 83 87 85 85 77 78 83 86 85 90 91 79 68 65 66 67 65 62 62 54 50 49 44 44 42 41 41 42 43 40 37 38 33 30 22 21 23 22 25 27 30 32
86 83 80 80 80 79 83 87 87 89 87 76 73 71 70 70 68 65 59 61 56 52 51 50 45 44 43 43 43 45 44 39 39 38 35 31 23 21 22 21 24 26 28
83 81 82 82 84 87 90 89 87 84 76 73 70 71 64 57 56 60 59 58 57 55 53 53 52 48 44 45 45 46 46 45 40 41 39 36 31 24 22 23 23 25 25
85 85 85 86 89 88 86 84 82 74 70 69 68 62 61 59 56 58 59 58 58 57 56 56 54 48 45 47 48 47 48 48 45 40 43 40 37 32 26 25 25 25 25
86 85 85 84 84 83 83 78 70 69 67 67 64 63 61 60 57 57 60 60 60 60 60 58 56 51 48 46 49 50 50 51 48 45 42 44 41 38 34 29 27 26 27
84 80 77 75 74 74 70 67 67 64 64 62 62 62 63 64 63 60 61 63 63 64 62 60 57 52 53 48 49 51 52 52 51 49 46 44 46 43 40 37 33 28 28
Wind_Direction
311 300 295 286 278 279 283 286 287 291 293 297 300 303 306 309 313 315 317 319 323 327 332 332 335 338 340 343 345 347 351 351 350 350 347 345 341 335 327 315 285 269 261
314 304 302 298 286 278 276 279 284 287 289 292 296 300 304 306 309 312 315 318 323 330 332 333 334 338 340 345 346 348 352 353 353 352 352 351 351 347 342 329 305 278 267
321 318 301 307 298 285 276 273 275 280 284 288 290 294 298 302 306 310 313 317 322 327 331 333 336 339 341 346 346 348 352 354 355 355 359 1 2 358 354 347 326 310 283
323 318 314 311 307 296 284 277 274 274 276 281 285 287 291 295 299 304 308 314 320 326 331 334 337 339 341 345 346 349 352 355 357 358 4 5 3 3 2 3 352 329 316
319 318 313 312 311 307 300 290 282 277 276 276 278 281 285 288 293 299 303 309 314 319 329 332 336 339 341 345 346 349 352 355 358 1 7 8 6 6 7 6 3 351 334
323 317 318 316 311 312 300 304 292 284 278 276 276 279 282 285 289 292 297 303 309 315 323 329 332 337 340 342 346 350 353 356 359 3 8 10 9 8 10 9 8 7 359
320 322 316 313 316 310 310 308 306 297 288 282 279 278 279 281 284 286 290 296 302 309 317 326 330 334 339 341 345 349 353 355 359 4 8 11 12 11 11 12 13 12 13
320 316 315 313 316 315 315 309 311 304 299 292 284 281 281 281 280 284 287 290 296 301 310 319 326 331 336 340 343 347 353 356 359 4 7 11 13 14 15 15 17 17 17
329 314 313 313 314 315 317 312 310 308 304 301 296 289 282 279 280 280 283 287 291 295 303 311 320 326 332 337 341 345 353 355 359 4 7 8 14 16 17 18 17 21 22
335 331 318 313 315 319 316 318 313 313 307 304 303 296 288 285 279 280 280 281 286 291 296 303 313 321 329 333 338 343 349 354 357 3 7 9 11 16 18 19 19 18 23
333 332 332 321 317 319 322 320 323 313 315 312 302 301 303 290 286 280 278 278 280 286 291 294 304 314 323 328 333 340 345 353 356 2 7 9 10 13 16 19 20 21 22
329 325 329 327 321 318 317 320 322 321 315 313 313 306 304 303 289 288 284 277 277 278 284 289 294 305 317 322 327 336 342 349 354 359 5 8 11 12 15 16 20 21 23
321 327 324 324 326 328 321 315 314 316 316 317 313 310 304 304 296 289 285 284 276 274 275 282 287 294 308 315 319 330 337 344 350 356 2 5 10 13 15 17 17 20 24
313 315 318 318 318 320 323 324 317 312 310 312 311 311 308 301 300 296 289 285 281 274 271 274 280 287 296 307 311 320 331 339 346 351 358 3 7 12 14 17 19 18 21
313 311 309 317 313 315 317 320 321 319 313 308 308 310 306 300 301 299 299 292 284 282 273 268 271 278 284 296 302 308 321 333 341 346 352 359 4 9 15 15 18 21 19
304 303 304 307 307 309 312 316 315 317 316 310 306 309 310 299 296 292 293 296 291 283 282 270 265 268 274 282 292 298 308 323 333 341 345 353 1 6 11 14 15 17 21
305 303 300 300 301 301 304 308 311 313 314 307 304 302 306 307 300 296 287 288 289 289 282 277 265 261 265 270 281 289 296 307 320 332 340 346 356 1 7 11 12 15 18
298 299 297 295 297 298 298 299 303 305 308 302 296 297 296 296 302 294 285 283 281 282 284 276 272 262 257 262 268 279 287 294 305 319 332 338 347 355 1 5 11 10 14
301 294 294 295 295 295 294 298 299 302 301 307 297 291 291 294 294 291 288 281 278 275 278 275 273 266 257 255 259 267 277 285 292 301 316 328 336 345 352 358 3 9 9
298 294 291 296 294 291 294 295 296 296 299 304 305 294 291 291 292 292 287 283 275 274 272 276 270 265 261 252 252 257 266 276 281 288 297 310 323 332 342 349 354 358 4
293 292 289 289 290 289 289 292 294 296 298 300 298 292 292 289 287 285 279 281 277 270 269 269 269 264 261 256 247 250 255 266 274 278 285 294 305 317 327 337 346 350 353
292 290 289 286 285 285 284 287 289 292 297 295 292 292 291 288 284 280 276 275 274 267 267 267 266 267 259 254 249 244 249 253 266 272 276 283 290 301 311 320 331 341 345
291 289 287 286 284 283 285 287 290 294 291 288 289 290 284 277 275 273 272 272 271 263 262 264 265 262 262 250 249 244 242 248 253 266 271 275 281 287 297 304 312 323 334
288 288 287 286 288 290 290 291 292 292 289 289 290 284 279 274 268 267 266 267 267 261 260 262 264 262 259 249 245 244 239 241 245 254 266 271 274 279 285 291 298 308 320
290 289 290 290 292 291 292 289 288 288 287 286 282 278 272 269 264 262 263 263 262 260 258 260 262 261 258 251 245 243 239 237 239 243 254 265 270 273 278 284 290 296 306
290 296 296 293 290 290 286 287 286 285 284 280 275 271 268 265 266 265 264 264 264 263 261 258 258 258 257 253 246 244 240 237 236 240 244 255 265 269 273 277 282 289 295
Height
10704 10698 10693 10690 10687 10685 10683 10680 10677 10675 10671 10667 10662 10658 10653 10648 10643 10637 10629 10621 10612 10604 10593 10582 10570 10557 10543 10528 10512 10494 10474 10450 10420 10389 10361 10336 10317 10303 10292 10284 10281 10278 10278
10694 10687 10681 10677 10674 10671 10669 10666 10663 10662 10659 10656 10652 10648 10643 10638 10633 10627 10621 10613 10604 10596 10585 10575 10563 10551 10537 10523 10505 10487 10468 10445 10417 10385 10355 10331 10312 10298 10287 10279 10274 10272 10269
10681 10676 10671 10665 10661 10657 10654 10651 10649 10647 10644 10642 10639 10636 10632 10628 10623 10618 10612 10605 10596 10588 10579 10569 10558 10545 10531 10518 10501 10483 10464 10443 10417 10387 10357 10330 10310 10297 10287 10279 10270 10265 10265
10669 10665 10658 10654 10649 10643 10639 10636 10635 10633 10629 10629 10625 10623 10619 10616 10612 10608 10602 10596 10589 10581 10572 10562 10552 10541 10527 10512 10497 10481 10461 10442 10417 10389 10358 10332 10314 10298 10287 10280 10271 10263 10262
10659 10653 10649 10642 10638 10633 10629 10624 10621 10618 10616 10615 10611 10609 10607 10605 10602 10597 10593 10588 10581 10574 10567 10557 10547 10537 10525 10511 10495 10479 10461 10442 10419 10393 10366 10341 10320 10303 10290 10280 10273 10265 10259
10651 10645 10638 10633 10626 10621 10617 10613 10608 10604 10601 10600 10598 10596 10594 10592 10590 10586 10583 10579 10573 10566 10560 10553 10542 10533 10522 10509 10495 10480 10462 10444 10423 10401 10375 10351 10328 10311 10297 10285 10276 10269 10263
10643 10636 10629 10623 10617 10611 10605 10601 10596 10592 10588 10586 10584 10582 10581 10580 10578 10574 10571 10568 10565 10559 10553 10546 10537 10528 10518 10507 10494 10480 10464 10447 10428 10406 10386 10364 10342 10323 10307 10293 10282 10273 10267
10633 10627 10620 10613 10607 10601 10596 10589 10584 10581 10576 10572 10569 10568 10566 10567 10565 10562 10559 10558 10554 10549 10545 10539 10532 10523 10514 10505 10493 10480 10466 10451 10433 10412 10392 10374 10355 10336 10320 10305 10291 10279 10271
10625 10617 10610 10603 10597 10591 10586 10580 10573 10567 10564 10561 10557 10555 10552 10551 10551 10549 10547 10546 10544 10540 10536 10531 10526 10519 10511 10502 10492 10480 10469 10454 10439 10420 10400 10382 10364 10346 10330 10316 10302 10291 10280
10616 10607 10599 10593 10587 10581 10575 10570 10564 10558 10553 10550 10546 10543 10539 10537 10538 10534 10534 10533 10533 10531 10527 10523 10518 10514 10507 10499 10490 10480 10469 10457 10443 10427 10409 10391 10373 10357 10341 10326 10314 10301 10291
10605 10598 10591 10583 10576 10569 10564 10559 10554 10549 10543 10538 10534 10530 10528 10525 10523 10520 10519 10519 10520 10521 10518 10514 10511 10506 10502 10495 10487 10479 10468 10459 10446 10432 10416 10400 10384 10367 10351 10337 10323 10313 10302
10595 10588 10582 10576 10569 10561 10554 10548 10542 10538 10533 10528 10523 10518 10515 10512 10509 10508 10506 10505 10506 10508 10508 10505 10502 10499 10496 10491 10483 10477 10467 10458 10449 10437 10423 10409 10394 10378 10362 10347 10335 10323 10312
10581 10577 10572 10565 10559 10552 10544 10539 10533 10528 10522 10517 10511 10506 10504 10501 10497 10496 10494 10494 10493 10493 10495 10494 10493 10490 10489 10484 10478 10473 10466 10457 10449 10440 10428 10416 10403 10389 10374 10360 10346 10335 10324
10568 10561 10558 10554 10547 10541 10537 10529 10523 10517 10512 10506 10501 10497 10492 10490 10486 10483 10482 10482 10480 10479 10482 10482 10481 10481 10480 10477 10472 10468 10462 10455 10447 10440 10430 10420 10408 10396 10383 10370 10357 10345 10335
10555 10549 10542 10537 10533 10528 10523 10517 10512 10505 10501 10495 10489 10487 10483 10479 10477 10473 10470 10470 10470 10468 10468 10469 10469 10470 10470 10469 10465 10461 10457 10451 10445 10439 10431 10422 10411 10401 10390 10379 10367 10356 10345
10539 10533 10527 10522 10517 10511 10506 10502 10499 10493 10489 10485 10479 10474 10471 10469 10467 10462 10458 10457 10457 10456 10456 10456 10456 10458 10459 10460 10458 10454 10451 10446 10441 10436 10430 10423 10414 10405 10395 10386 10376 10366 10356
10519 10514 10510 10505 10501 10496 10490 10485 10479 10477 10474 10469 10466 10462 10457 10455 10455 10451 10448 10444 10443 10442 10443 10443 10443 10445 10447 10449 10449 10446 10444 10441 10437 10432 10427 10422 10415 10407 10400 10390 10382 10374 10365
10498 10495 10490 10485 10481 10477 10473 10469 10466 10461 10457 10454 10450 10447 10443 10440 10438 10436 10433 10431 10429 10428 10429 10430 10430 10431 10434 10437 10437 10437 10436 10433 10430 10427 10423 10419 10414 10407 10401 10394 10386 10379 10371
10476 10470 10467 10463 10460 10456 10451 10448 10443 10440 10436 10433 10431 10428 10426 10424 10421 10418 10417 10415 10413 10413 10412 10415 10416 10418 10420 10424 10426 10426 10426 10425 10423 10421 10418 10415 10411 10406 10400 10395 10388 10382 10374
10453 10448 10444 10439 10437 10434 10430 10423 10419 10417 10414 10412 10409 10407 10408 10407 10402 10399 10399 10398 10397 10397 10396 10398 10401 10403 10406 10409 10413 10415 10415 10415 10415 10413 10411 10408 10406 10403 10399 10393 10388 10382 10376
10425 10423 10420 10417 10414 10410 10407 10401 10397 10395 10392 10390 10386 10385 10387 10387 10383 10381 10379 10381 10380 10381 10379 10381 10383 10387 10390 10394 10397 10401 10403 10404 10404 10405 10403 10401 10399 10397 10395 10391 10386 10381 10376
10400 10396 10395 10392 10389 10387 10384 10379 10374 10373 10371 10365 10363 10361 10361 10362 10360 10359 10358 10360 10363 10363 10363 10363 10366 10370 10373 10377 10381 10386 10389 10392 10393 10393 10394 10393 10391 10390 10388 10386 10384 10379 10374
10374 10371 10367 10364 10362 10359 10356 10354 10351 10348 10347 10342 10339 10336 10337 10337 10337 10339 10337 10340 10343 10344 10345 10346 10347 10352 10356 10360 10365 10369 10374 10378 10381 10381 10382 10383 10382 10381 10380 10379 10377 10375 10371
10348 10344 10340 10336 10333 10330 10329 10326 10324 10321 10319 10315 10314 10313 10312 10315 10314 10317 10317 10319 10323 10324 10326 10328 10329 10333 10336 10342 10347 10352 10357 10362 10367 10370 10369 10371 10372 10371 10371 10370 10369 10367 10365
10323 10319 10316 10311 10310 10307 10305 10301 10298 10296 10294 10292 10289 10289 10288 10289 10291 10295 10296 10297 10300 10305 10307 10309 10312 10316 10318 10323 10329 10335 10340 10345 10351 10356 10358 10358 10359 10360 10360 10360 10359 10358 10357
10295 10293 10291 10288 10285 10282 10278 10273 10270 10269 10267 10266 10265 10264 10264 10265 10268 10273 10275 10277 10280 10283 10286 10289 10292 10296 10300 10304 10311 10318 10323 10328 10335 10341 10345 10346 10346 10347 10349 10349 10348 10349 10348